Destin, FL

9:02 PM CDT on April 24, 2017 (GMT -0500)
Destin-Fort Walton Beach

Weather History for KDTS - October, 2012

Change the Weather History Date:

Saturday, October 6, 2012

  Actual Average Record
Temperature  
Mean Temperature 78 °F -  
Max Temperature 84 °F 79 °F 91 °F (2016)
Min Temperature 72 °F 64 °F 57 °F (2010)
Cooling Degree Days 13    
Growing Degree Days 28 (Base 50)    
Moisture  
Dew Point 70 °F    
Average Humidity 81    
Maximum Humidity 97    
Minimum Humidity 55    
Precipitation  
Precipitation 0.00 in - - ()
Sea Level Pressure  
Sea Level Pressure 29.97 in    
Wind  
Wind Speed 3 mph (NNW)    
Max Wind Speed 8 mph    
Max Gust Speed -    
Visibility 10 miles    
Events      
Averages and records for this station are not official NWS values.
T = Trace of Precipitation, MM = Missing Value Source: NWS Daily Summary

Daily Weather History Graph

Daily Weather History Graph

Search for Another Location

Airport or City:

Trip Planner

Search our weather history database for the weather conditions in past years. The results will help you decide how hot, cold, wet, or windy it might be!

Date:

Astronomy

Oct. 06, 2012 Rise Set
Actual Time 6:42 AM CDT 6:24 PM CDT
Civil Twilight 6:18 AM CDT 6:48 PM CDT
Nautical Twilight 5:50 AM CDT 7:16 PM CDT
Astronomical Twilight 5:22 AM CDT 7:44 PM CDT
Moon 10:57 PM CDT (10/6) 12:18 PM CDT (10/6)
Length of Visible Light 12h 29m
Length of Day
11h 41m
Waning Gibbous, 65% of the Moon is Illuminated
Oct 6
Waning Gibbous
Oct 8
Last Quarter
Oct 15
New
Oct 21
First Quarter
Oct 29
Full

Hourly Weather History & Observations

Time (CDT) Temp. Heat Index Dew Point Humidity Pressure Visibility Wind Dir Wind Speed Gust Speed Precip Events Conditions
12:53 AM 73.0 °F - 71.1 °F 93% 30.01 in 10.0 mi Calm Calm - N/A   Partly Cloudy
1:53 AM 73.0 °F - 71.1 °F 93% 30.00 in 9.0 mi Calm Calm - N/A   Mostly Cloudy
2:53 AM 72.0 °F - 71.1 °F 97% 29.98 in 9.0 mi Calm Calm - N/A   Clear
3:53 AM 72.0 °F - 71.1 °F 97% 29.97 in 9.0 mi Calm Calm - N/A   Clear
4:53 AM 72.0 °F - 70.0 °F 93% 29.98 in 8.0 mi Calm Calm - N/A   Clear
5:53 AM 72.0 °F - 70.0 °F 93% 29.98 in 9.0 mi NNW 3.5 mph - N/A   Clear
6:53 AM 72.0 °F - 70.0 °F 93% 30.00 in 7.0 mi North 4.6 mph - N/A   Partly Cloudy
7:53 AM 73.0 °F - 70.0 °F 90% 30.00 in 9.0 mi North 4.6 mph - N/A   Clear
8:53 AM 73.9 °F - 71.1 °F 91% 30.01 in 10.0 mi North 4.6 mph - N/A   Clear
9:06 AM 75.2 °F - 71.6 °F 89% 30.01 in 10.0 mi North 8.1 mph - N/A   Partly Cloudy
9:53 AM 77.0 °F - 72.0 °F 84% 30.01 in 10.0 mi North 5.8 mph - N/A   Clear
10:53 AM 80.1 °F 83.6 °F 71.1 °F 74% 30.01 in 10.0 mi NNE 4.6 mph - N/A   Clear
11:53 AM 82.0 °F 84.9 °F 68.0 °F 62% 30.00 in 10.0 mi North 5.8 mph - N/A   Clear
12:53 PM 84.0 °F 86.3 °F 66.0 °F 55% 29.97 in 10.0 mi Calm Calm - N/A   Clear
1:53 PM 82.0 °F 85.9 °F 70.0 °F 67% 29.94 in 10.0 mi SSW 6.9 mph - N/A   Clear
2:53 PM 82.0 °F 86.3 °F 71.1 °F 69% 29.92 in 10.0 mi South 6.9 mph - N/A   Clear
3:53 PM 82.0 °F 86.3 °F 71.1 °F 69% 29.91 in 10.0 mi Variable 6.9 mph - N/A   Clear
4:53 PM 81.0 °F 84.9 °F 71.1 °F 72% 29.91 in 10.0 mi WSW 5.8 mph - N/A   Clear
5:53 PM 79.0 °F - 70.0 °F 74% 29.92 in 10.0 mi WSW 5.8 mph - N/A   Clear
6:53 PM 79.0 °F - 69.1 °F 72% 29.93 in 10.0 mi Calm Calm - N/A   Clear
7:53 PM 77.0 °F - 70.0 °F 79% 29.95 in 10.0 mi Variable 3.5 mph - N/A   Clear
8:53 PM 77.0 °F - 71.1 °F 82% 29.96 in 10.0 mi NW 3.5 mph - N/A   Clear
9:53 PM 75.9 °F - 70.0 °F 82% 29.98 in 10.0 mi Calm Calm - N/A   Clear
10:53 PM 73.9 °F - 70.0 °F 87% 29.98 in 10.0 mi North 4.6 mph - N/A   Clear
11:53 PM 72.0 °F - 64.9 °F 78% 29.98 in 10.0 mi North 8.1 mph - N/A   Clear